Terug naar catalogus

STARLINK-5524

ActiefCommunicatieVLEO
NORAD 56474·PAYLOAD·🇺🇸 United States

Gelanceerd May 10, 2023 vanaf Vandenberg Space Force Base

Loading…

Volgende Passages (komende 24 uur)

TLE

VersSource: CelesTrak SupGP

Epoch: Sep 14, 2026, 20:44 UTC

1 56474C 23064AC  26257.86437500  .00475320  00000+0  38561-1 0  2577
2 56474  70.0004   7.6525 0003175 277.0944   8.7335 14.99343245    14

Volg STARLINK-5524 in realtime met AllMySat

Download on the App Store